EW5684 Weather Reports


Display with metric or nautical units.
time (UTC)temp
F
wind
direction
speed
MPH
gust
MPH
rain 1hr
in
rain 24hr
in
rain mn
in
humidity
%
barometer
mb
20260508060105 58 62 4.0 9.0 0.00 0.00 0.00 53 1016.4
20260508055605 58 35 6.0 9.0 0.00 0.00 0.00 52 1016.4
20260508055105 59 68 4.0 6.0 0.00 0.00 0.00 52 1016.4
20260508054605 59 82 5.0 6.0 0.00 0.00 0.00 51 1016.4
20260508054104 59 78 4.0 7.0 0.00 0.00 0.00 51 1016.3
20260508053604 59 69 5.0 7.0 0.00 0.00 0.00 51 1016.3
20260508053105 58 58 2.0 5.0 0.00 0.00 0.00 51 1016.2
20260508052605 58 34 3.0 5.0 0.00 0.00 0.00 51 1016.1
20260508052104 58 28 3.0 5.0 0.00 0.00 0.00 51 1016.1
20260508051604 58 39 3.0 5.0 0.00 0.00 0.00 51 1016.1
20260508051105 58 16 3.0 5.0 0.00 0.00 0.00 51 1016.0
20260508050604 58 24 4.0 5.0 0.00 0.00 0.00 51 1016.0
20260508050104 58 6 4.0 6.0 0.00 0.00 0.00 51 1015.8
20260508045604 58 6 4.0 7.0 0.00 0.00 0.00 51 1015.7
20260508045105 58 30 6.0 7.0 0.00 0.00 0.00 51 1015.7
20260508044605 58 3 5.0 7.0 0.00 0.00 0.00 51 1015.7
20260508044104 58 20 4.0 6.0 0.00 0.00 0.00 51 1015.6
20260508043605 58 1 3.0 9.0 0.00 0.00 0.00 51 1015.6
20260508043104 58 321 4.0 9.0 0.00 0.00 0.00 51 1015.6
20260508042604 58 0 4.0 7.0 0.00 0.00 0.00 52 1015.5
20260508042104 58 353 5.0 7.0 0.00 0.00 0.00 52 1015.4
20260508041604 58 331 6.0 7.0 0.00 0.00 0.00 52 1015.5
20260508041105 58 334 4.0 6.0 0.00 0.00 0.00 52 1015.4
20260508040604 58 348 4.0 6.0 0.00 0.00 0.00 53 1015.4
20260508040105 58 330 2.0 5.0 0.00 0.00 0.00 53 1015.4
20260508035604 58 355 3.0 6.0 0.00 0.00 0.00 53 1015.4
20260508035105 58 21 4.0 6.0 0.00 0.00 0.00 53 1015.2
20260508034604 58 6 2.0 5.0 0.00 0.00 0.00 53 1015.2
20260508034328 58 52 3.0 5.0 0.00 0.00 0.00 53 1015.2
20260508033605 58 4 3.0 5.0 0.00 0.00 0.00 53 1015.2
20260508033104 58 41 2.0 4.0 0.00 0.00 0.00 53 1015.1
20260508032605 58 25 2.0 3.0 0.00 0.00 0.00 53 1015.2
20260508032548 58 16 1.0 3.0 0.00 0.00 0.00 53 1015.2
20260508031604 58 8 1.0 3.0 0.00 0.00 0.00 53 1015.1
20260508031105 58 116 0.0 1.0 0.00 0.00 0.00 53 1015.0
20260508030604 58 137 0.0 1.0 0.00 0.00 0.00 53 1014.9
20260508030104 58 137 0.0 0.0 0.00 0.00 0.00 53 1015.0
20260508025604 58 137 0.0 1.0 0.00 0.00 0.00 53 1015.0
20260508025105 58 137 0.0 1.0 0.00 0.00 0.00 53 1015.0
20260508024604 58 137 0.0 0.0 0.00 0.00 0.00 53 1014.9
20260508024105 58 137 0.0 0.0 0.00 0.00 0.00 53 1014.9
20260508023605 58 137 0.0 0.0 0.00 0.00 0.00 53 1014.9
20260508023105 57 137 0.0 0.0 0.00 0.00 0.00 54 1014.8
20260508022834 57 137 0.0 0.0 0.00 0.00 0.00 54 1014.9
20260508022322 57 137 0.0 0.0 0.00 0.00 0.00 54 1014.9
20260508021953 57 137 0.0 2.0 0.00 0.00 0.00 54 1014.8
20260508021947 57 137 0.0 0.0 0.00 0.00 0.00 55 1015.0
20260508021943 57 137 0.0 2.0 0.00 0.00 0.00 54 1014.9
20260508020811 57 137 0.0 1.0 0.00 0.00 0.00 55 1015.0
20260508015605 58 137 0.0 0.0 0.00 0.00 0.00 55 1014.9
20260508015104 57 137 0.0 0.0 0.00 0.00 0.00 55 1014.9
20260508014604 58 137 0.0 0.0 0.00 0.00 0.00 55 1014.9
20260508014104 57 137 0.0 0.0 0.00 0.00 0.00 55 1014.8
20260508013605 57 137 0.0 0.0 0.00 0.00 0.00 55 1014.8
20260508013104 57 137 0.0 0.0 0.00 0.00 0.00 55 1014.8
20260508012605 57 137 0.0 0.0 0.00 0.00 0.00 55 1014.9
20260508012104 58 137 0.0 0.0 0.00 0.00 0.00 55 1014.8
20260508011604 58 137 0.0 0.0 0.00 0.00 0.00 56 1014.9
20260508011104 58 137 0.0 2.0 0.00 0.00 0.00 56 1015.0
20260508010605 58 137 0.0 3.0 0.00 0.00 0.00 56 1015.1
20260508010105 58 134 2.0 3.0 0.00 0.00 0.00 56 1015.1
20260508005830 58 134 0.0 2.0 0.00 0.00 0.00 56 1015.0
20260508005104 58 134 0.0 2.0 0.00 0.00 0.00 56 1015.0
20260508004824 58 134 0.0 1.0 0.00 0.00 0.00 56 1014.9
20260508004104 58 134 0.0 0.0 0.00 0.00 0.00 55 1014.9
20260508003605 59 134 0.0 0.0 0.00 0.00 0.00 56 1014.9
20260508003105 59 134 0.0 0.0 0.00 0.00 0.00 56 1015.0
20260508003055 58 134 0.0 2.0 0.00 0.00 0.00 55 1015.0
20260508002549 59 134 0.0 2.0 0.00 0.00 0.00 55 1015.1
20260508001826 59 134 0.0 3.0 0.00 0.00 0.00 55 1015.1
20260508001104 59 134 1.0 3.0 0.00 0.00 0.00 55 1015.0
20260508000605 59 34 0.0 1.0 0.00 0.00 0.00 55 1015.0
20260508000544 59 32 0.0 1.0 0.00 0.00 0.00 55 1015.0
20260507235605 59 32 0.0 1.0 0.00 0.00 0.00 55 1015.0
20260507235105 60 32 1.0 1.0 0.00 0.00 0.00 54 1015.0
20260507234605 60 32 0.0 0.0 0.00 0.00 0.00 54 1015.1
20260507234104 60 32 0.0 3.0 0.00 0.00 0.00 54 1015.1
20260507233605 60 32 2.0 4.0 0.00 0.00 0.00 54 1015.0
20260507233104 60 35 2.0 4.0 0.00 0.00 0.00 54 1015.0
20260507232604 60 41 2.0 3.0 0.00 0.00 0.00 54 1015.1
20260507232104 60 41 0.0 0.0 0.00 0.00 0.00 54 1015.2
20260507231824 60 41 0.0 0.0 0.00 0.00 0.00 54 1015.1
20260507231331 60 41 0.0 0.0 0.00 0.00 0.00 54 1015.1
20260507230604 60 41 0.0 0.0 0.00 0.00 0.00 53 1015.1
20260507230105 60 41 0.0 0.0 0.00 0.00 0.00 53 1015.2
20260507225605 60 41 0.0 0.0 0.00 0.00 0.00 53 1015.2
20260507225104 60 41 0.0 1.0 0.00 0.00 0.00 53 1015.1
20260507224605 60 41 0.0 1.0 0.00 0.00 0.00 53 1015.1
20260507224104 60 41 0.0 2.0 0.00 0.00 0.00 53 1015.1
20260507223604 60 41 0.0 4.0 0.00 0.00 0.00 53 1015.0
20260507223104 60 41 2.0 4.0 0.00 0.00 0.00 53 1015.0
20260507222604 60 44 1.0 4.0 0.00 0.00 0.00 53 1014.9
20260507222105 60 44 0.0 4.0 0.00 0.00 0.00 53 1014.9
20260507221828 60 345 2.0 3.0 0.00 0.00 0.00 53 1014.9
20260507221104 60 341 1.0 3.0 0.00 0.00 0.00 53 1014.9
20260507220605 60 341 2.0 3.0 0.00 0.00 0.00 53 1014.9
20260507220105 60 338 2.0 3.0 0.00 0.00 0.00 53 1014.9
20260507215828 60 334 2.0 3.0 0.00 0.00 0.00 53 1014.9
20260507215105 60 336 2.0 3.0 0.00 0.00 0.00 54 1015.0
20260507214605 60 336 2.0 3.0 0.00 0.00 0.00 53 1014.9
20260507214105 60 327 0.0 1.0 0.00 0.00 0.00 53 1014.9
20260507213604 60 327 0.0 1.0 0.00 0.00 0.00 54 1014.9
20260507213321 60 327 0.0 2.0 0.00 0.00 0.00 54 1014.9
20260507212604 60 327 1.0 4.0 0.00 0.00 0.00 54 1014.8
20260507212105 60 327 3.0 4.0 0.00 0.00 0.00 55 1014.7
20260507211830 60 327 2.0 4.0 0.00 0.00 0.00 55 1014.7
20260507211105 60 175 0.0 2.0 0.00 0.00 0.00 55 1014.7
20260507210604 60 175 2.0 2.0 0.00 0.00 0.00 55 1014.7
20260507210104 61 175 0.0 0.0 0.00 0.00 0.00 54 1014.7
20260507205605 61 175 0.0 0.0 0.00 0.00 0.00 54 1014.7
20260507205105 61 175 0.0 1.0 0.00 0.00 0.00 54 1014.7
20260507204604 61 175 0.0 1.0 0.00 0.00 0.00 54 1014.7
20260507204104 61 175 0.0 1.0 0.00 0.00 0.00 54 1014.7
20260507203604 61 173 0.0 0.0 0.00 0.00 0.00 54 1014.7
20260507203104 61 175 0.0 1.0 0.00 0.00 0.00 54 1014.6
20260507202605 61 175 0.0 2.0 0.00 0.00 0.00 54 1014.6
20260507202104 61 175 1.0 2.0 0.00 0.00 0.00 54 1014.5
20260507201604 62 175 1.0 2.0 0.00 0.00 0.00 54 1014.4
20260507201105 62 175 1.0 2.0 0.00 0.00 0.00 53 1014.3
20260507200604 62 175 0.0 0.0 0.00 0.00 0.00 53 1014.3
20260507200105 62 175 0.0 4.0 0.00 0.00 0.00 53 1014.1
20260507195831 62 0 0.0 4.0 0.00 0.00 0.00 53 1014.2
20260507195331 62 0 2.0 4.0 0.00 0.00 0.00 53 1014.1
20260507194605 62 0 3.0 4.0 0.00 0.00 0.00 53 1014.0
20260507194104 62 0 0.0 3.0 0.00 0.00 0.00 52 1013.9
20260507193605 62 0 2.0 5.0 0.00 0.00 0.00 51 1013.9
20260507193105 63 0 2.0 5.0 0.00 0.00 0.00 50 1013.9
20260507192604 64 0 3.0 4.0 0.00 0.00 0.00 47 1013.8
20260507192105 64 0 1.0 2.0 0.00 0.00 0.00 46 1013.6
20260507191605 64 0 0.0 3.0 0.00 0.00 0.00 47 1013.5
20260507191104 64 0 1.0 5.0 0.00 0.00 0.00 47 1013.6
20260507190605 64 0 3.0 5.0 0.00 0.00 0.00 47 1013.6
20260507190326 65 0 0.0 2.0 0.00 0.00 0.00 46 1013.5
20260507185604 65 0 0.0 2.0 0.00 0.00 0.00 45 1013.4
20260507185329 65 0 1.0 3.0 0.00 0.00 0.00 45 1013.2
20260507184604 65 0 2.0 3.0 0.00 0.00 0.00 44 1013.1
20260507184103 65 0 2.0 3.0 0.00 0.00 0.00 44 1013.1
20260507183604 65 0 1.0 2.0 0.00 0.00 0.00 45 1013.2
20260507183105 65 0 1.0 3.0 0.00 0.00 0.00 46 1013.1
20260507182604 65 0 2.0 3.0 0.00 0.00 0.00 45 1013.2
20260507182105 65 0 3.0 4.0 0.00 0.00 0.00 46 1013.1
20260507181604 65 0 3.0 4.0 0.00 0.00 0.00 46 1013.0
20260507181326 65 0 2.0 5.0 0.00 0.00 0.00 46 1013.0
20260507180604 65 0 4.0 5.0 0.00 0.00 0.00 46 1012.9
20260507180105 65 0 3.0 5.0 0.00 0.00 0.00 46 1012.9
20260507175604 65 0 2.0 5.0 0.00 0.00 0.00 46 1012.9
20260507175104 66 0 4.0 6.0 0.00 0.00 0.00 45 1012.9
20260507174605 66 0 5.0 9.0 0.00 0.00 0.00 45 1012.9
20260507174105 67 0 6.0 9.0 0.00 0.00 0.00 43 1012.9
20260507173605 67 0 6.0 7.0 0.00 0.00 0.00 42 1012.9
20260507173105 69 0 5.0 6.0 0.00 0.00 0.00 41 1012.8
20260507172832 69 0 2.0 4.0 0.00 0.00 0.00 37 1012.8
20260507172104 70 0 2.0 3.0 0.00 0.00 0.00 37 1012.7
20260507172041 70 0 2.0 3.0 0.00 0.00 0.00 36 1012.7
20260507171104 70 0 1.0 4.0 0.00 0.00 0.00 35 1012.7
20260507170823 69 0 1.0 4.0 0.00 0.00 0.00 35 1012.7
20260507170105 70 0 2.0 4.0 0.00 0.00 0.00 36 1012.6
20260507165605 70 0 1.0 4.0 0.00 0.00 0.00 32 1012.7
20260507165104 70 0 3.0 4.0 0.00 0.00 0.00 32 1012.7
20260507164605 71 0 1.0 5.0 0.00 0.00 0.00 31 1012.6
20260507164105 72 149 4.0 5.0 0.00 0.00 0.00 31 1012.6
20260507163604 71 172 0.0 4.0 0.00 0.00 0.00 32 1012.6
20260507163105 71 166 2.0 4.0 0.00 0.00 0.00 32 1012.7
20260507162604 71 238 3.0 5.0 0.00 0.00 0.00 34 1012.6
20260507162104 71 200 2.0 5.0 0.00 0.00 0.00 34 1012.6
20260507161604 71 237 3.0 5.0 0.00 0.00 0.00 34 1012.6
20260507161105 72 190 2.0 4.0 0.00 0.00 0.00 32 1012.7
20260507160604 72 133 0.0 6.0 0.00 0.00 0.00 31 1012.6
20260507160105 72 165 2.0 6.0 0.00 0.00 0.00 32 1012.6
20260507155830 71 173 2.0 5.0 0.00 0.00 0.00 33 1012.6
20260507155104 71 193 2.0 5.0 0.00 0.00 0.00 32 1012.5
20260507154605 71 189 2.0 5.0 0.00 0.00 0.00 34 1012.6
20260507154332 71 165 4.0 6.0 0.00 0.00 0.00 34 1012.6
20260507153604 71 193 3.0 6.0 0.00 0.00 0.00 33 1012.6
20260507153332 73 159 2.0 4.0 0.00 0.00 0.00 34 1012.6
20260507152604 73 138 2.0 4.0 0.00 0.00 0.00 33 1012.6
20260507152104 72 169 2.0 4.0 0.00 0.00 0.00 33 1012.6
20260507151605 72 90 2.0 4.0 0.00 0.00 0.00 35 1012.5
20260507151104 71 135 2.0 5.0 0.00 0.00 0.00 36 1012.6
20260507150604 72 243 2.0 5.0 0.00 0.00 0.00 35 1012.6
20260507150104 72 59 3.0 5.0 0.00 0.00 0.00 35 1012.7
20260507145604 72 145 2.0 4.0 0.00 0.00 0.00 34 1012.7
20260507145105 72 161 2.0 5.0 0.00 0.00 0.00 36 1012.7
20260507144604 71 231 3.0 5.0 0.00 0.00 0.00 36 1012.7
20260507144033 71 158 2.0 5.0 0.00 0.00 0.00 35 1012.7
20260507143533 72 173 1.0 4.0 0.00 0.00 0.00 34 1012.8
20260507143031 73 71 2.0 4.0 0.00 0.00 0.00 35 1012.8
20260507142523 72 109 1.0 4.0 0.00 0.00 0.00 35 1012.8
20260507142023 71 93 1.0 4.0 0.00 0.00 0.00 36 1012.9
20260507141518 70 189 2.0 5.0 0.00 0.00 0.00 36 1013.0
20260507141016 71 142 3.0 5.0 0.00 0.00 0.00 36 1013.0
20260507140736 69 235 1.0 5.0 0.00 0.00 0.00 37 1013.1
20260507140014 69 230 4.0 9.0 0.00 0.00 0.00 37 1013.1
20260507135511 70 231 3.0 11.0 0.00 0.00 0.00 38 1013.1
20260507135012 70 210 5.0 11.0 0.00 0.00 0.00 36 1013.1
20260507134738 71 154 4.0 6.0 0.00 0.00 0.00 36 1013.2
20260507134012 70 272 2.0 6.0 0.00 0.00 0.00 38 1013.2
20260507133511 69 271 4.0 7.0 0.00 0.00 0.00 39 1013.2
20260507133014 69 233 5.0 7.0 0.00 0.00 0.00 39 1013.3
20260507132511 70 0 2.0 5.0 0.00 0.00 0.00 37 1013.3
20260507132012 70 0 3.0 6.0 0.00 0.00 0.00 38 1013.4
20260507131511 68 0 2.0 7.0 0.00 0.00 0.00 37 1013.4
20260507131011 69 0 4.0 9.0 0.00 0.00 0.00 39 1013.4
20260507130511 69 0 3.0 9.0 0.00 0.00 0.00 38 1013.5
20260507130231 69 0 3.0 6.0 0.00 0.00 0.00 39 1013.6
20260507125511 69 0 4.0 6.0 0.00 0.00 0.00 37 1013.5
20260507125011 70 0 4.0 6.0 0.00 0.00 0.00 40 1013.6
20260507124511 68 0 3.0 5.0 0.00 0.00 0.00 39 1013.6
20260507124010 69 0 3.0 5.0 0.00 0.00 0.00 35 1013.6
20260507123510 69 0 2.0 6.0 0.00 0.00 0.00 35 1013.7
20260507123010 69 0 2.0 9.0 0.00 0.00 0.00 38 1013.8
20260507122510 68 0 3.0 9.0 0.00 0.00 0.00 37 1013.8
20260507122010 68 0 4.0 9.0 0.00 0.00 0.00 37 1013.7
20260507121510 68 0 4.0 9.0 0.00 0.00 0.00 40 1013.7
20260507121010 68 0 3.0 6.0 0.00 0.00 0.00 38 1013.8
20260507120510 69 0 3.0 7.0 0.00 0.00 0.00 40 1013.8
20260507120010 69 0 2.0 7.0 0.00 0.00 0.00 40 1013.9
20260507115509 69 0 3.0 7.0 0.00 0.00 0.00 38 1013.8
20260507115009 67 0 4.0 10.0 0.00 0.00 0.00 42 1013.9
20260507114509 68 0 6.0 10.0 0.00 0.00 0.00 42 1014.0
20260507114009 68 0 2.0 7.0 0.00 0.00 0.00 41 1014.0
20260507113509 66 0 3.0 6.0 0.00 0.00 0.00 43 1014.1
20260507113233 66 0 6.0 6.0 0.00 0.00 0.00 42 1014.1
20260507112735 66 0 1.0 6.0 0.00 0.00 0.00 44 1014.2
20260507112008 65 0 2.0 6.0 0.00 0.00 0.00 45 1014.2
20260507111509 66 0 2.0 6.0 0.00 0.00 0.00 42 1014.3
20260507111008 66 0 4.0 6.0 0.00 0.00 0.00 44 1014.3
20260507110508 66 0 2.0 6.0 0.00 0.00 0.00 42 1014.4
20260507110009 66 0 2.0 6.0 0.00 0.00 0.00 42 1014.5
20260507105508 66 0 4.0 6.0 0.00 0.00 0.00 42 1014.4
20260507105008 66 0 2.0 6.0 0.00 0.00 0.00 44 1014.5
20260507104508 67 0 2.0 6.0 0.00 0.00 0.00 43 1014.5
20260507104008 66 0 4.0 6.0 0.00 0.00 0.00 45 1014.5
20260507103508 65 0 3.0 9.0 0.00 0.00 0.00 47 1014.5
20260507103007 65 0 5.0 9.0 0.00 0.00 0.00 47 1014.6
20260507102730 66 0 3.0 7.0 0.00 0.00 0.00 46 1014.7
20260507102459 65 0 4.0 7.0 0.00 0.00 0.00 47 1014.7
20260507101507 64 0 2.0 7.0 0.00 0.00 0.00 47 1014.7
20260507101007 64 0 5.0 7.0 0.00 0.00 0.00 45 1014.8
20260507100507 64 0 3.0 4.0 0.00 0.00 0.00 44 1014.8
20260507100007 64 0 1.0 4.0 0.00 0.00 0.00 44 1014.7
20260507095507 65 0 1.0 6.0 0.00 0.00 0.00 44 1014.7
20260507095007 65 0 4.0 6.0 0.00 0.00 0.00 44 1014.6
20260507094727 66 0 4.0 6.0 0.00 0.00 0.00 45 1014.6
20260507094007 65 0 3.0 4.0 0.00 0.00 0.00 46 1014.6
20260507093726 65 0 2.0 5.0 0.00 0.00 0.00 45 1014.6
20260507093229 65 0 2.0 7.0 0.00 0.00 0.00 45 1014.5
20260507092507 65 0 3.0 7.0 0.00 0.00 0.00 46 1014.5
20260507092223 66 0 2.0 3.0 0.00 0.00 0.00 45 1014.6
20260507091507 65 0 2.0 5.0 0.00 0.00 0.00 45 1014.6
20260507091005 65 0 2.0 5.0 0.00 0.00 0.00 45 1014.6
20260507090507 65 0 0.0 5.0 0.00 0.00 0.00 46 1014.6
20260507090006 64 0 3.0 7.0 0.00 0.00 0.00 46 1014.6
20260507085506 64 0 3.0 7.0 0.00 0.00 0.00 46 1014.5
20260507085005 65 0 1.0 7.0 0.00 0.00 0.00 46 1014.5
20260507084504 64 0 5.0 7.0 0.00 0.00 0.00 46 1014.5
20260507084004 63 0 4.0 5.0 0.00 0.00 0.00 47 1014.5
20260507083504 63 0 2.0 5.0 0.00 0.00 0.00 48 1014.5
20260507083005 62 0 2.0 5.0 0.00 0.00 0.00 47 1014.4
20260507082503 63 0 2.0 5.0 0.00 0.00 0.00 48 1014.4
20260507082004 64 0 2.0 4.0 0.00 0.00 0.00 47 1014.5
20260507081723 63 0 2.0 4.0 0.00 0.00 0.00 48 1014.5
20260507081003 62 0 2.0 4.0 0.00 0.00 0.00 49 1014.5
20260507080503 62 0 2.0 4.0 0.00 0.00 0.00 48 1014.5
20260507080005 62 0 1.0 5.0 0.00 0.00 0.00 50 1014.5
20260507075505 61 0 2.0 5.0 0.00 0.00 0.00 50 1014.4
20260507075004 61 0 1.0 6.0 0.00 0.00 0.00 50 1014.5
20260507074727 61 0 4.0 6.0 0.00 0.00 0.00 50 1014.5
20260507074004 60 0 2.0 6.0 0.00 0.00 0.00 51 1014.4
20260507073504 60 0 4.0 6.0 0.00 0.00 0.00 50 1014.5
20260507073005 60 0 3.0 4.0 0.00 0.00 0.00 50 1014.5
20260507072504 60 0 2.0 6.0 0.00 0.00 0.00 49 1014.4
20260507072003 60 0 2.0 6.0 0.00 0.00 0.00 50 1014.4
20260507071505 60 0 3.0 6.0 0.00 0.00 0.00 49 1014.4
20260507071004 60 0 3.0 6.0 0.00 0.00 0.00 49 1014.4
20260507070731 60 0 0.0 3.0 0.00 0.00 0.00 49 1014.3
20260507070009 60 0 1.0 3.0 0.00 0.00 0.00 48 1014.3
20260507065503 60 0 1.0 3.0 0.00 0.00 0.00 49 1014.2
20260507065004 60 0 1.0 2.0 0.00 0.00 0.00 49 1014.3
20260507064504 59 0 0.0 0.0 0.00 0.00 0.00 49 1014.2
20260507064002 58 0 0.0 0.0 0.00 0.00 0.00 50 1014.2
20260507063502 58 0 0.0 0.0 0.00 0.00 0.00 49 1014.1
20260507063004 57 0 0.0 0.0 0.00 0.00 0.00 49 1014.1
20260507062731 57 0 0.0 2.0 0.00 0.00 0.00 50 1014.1
20260507062222 56 0 0.0 4.0 0.00 0.00 0.00 50 1014.1
20260507061502 56 0 2.0 4.0 0.00 0.00 0.00 50 1014.0
20260507061002 55 0 0.0 5.0 0.00 0.00 0.00 50 1014.0
20260507060502 55 0 3.0 5.0 0.00 0.00 0.00 51 1014.0